This is the latest recevied weather packets stored in our database for station/object AA4XD. If no packets are shown the sender has not sent any weather packets the latest 10 day(s).
| Time | Temp. | Humidity | Pressure | Rain* | Wind** | Luminosity | Snow |
|---|---|---|---|---|---|---|---|
| 1777675071 | 28.33° C | 59% | 1009.1 hPa | 0 mm | - | 126 W/m² | - |
| 1777674767 | 28.89° C | 57% | 1008.8 hPa | 0 mm | - | 153 W/m² | - |
| 1777674464 | 28.89° C | 57% | 1008.9 hPa | 0 mm | - | 153 W/m² | - |
| 1777674162 | 28.89° C | 58% | 1008.8 hPa | 0 mm | - | 157 W/m² | - |
| 1777673858 | 28.89° C | 57% | 1008.8 hPa | 0 mm | - | 160 W/m² | - |
| 1777673555 | 28.89° C | 57% | 1008.9 hPa | 0 mm | - | 148 W/m² | - |
| 1777673252 | 28.89° C | 57% | 1008.8 hPa | 0 mm | - | 141 W/m² | - |
| 1777672949 | 28.89° C | 56% | 1008.8 hPa | 0 mm | - | 138 W/m² | - |
| 1777672646 | 30° C | 54% | 1008.9 hPa | 0 mm | - | 155 W/m² | - |
| 1777672341 | 30° C | 53% | 1008.9 hPa | 0 mm | - | 187 W/m² | - |
| 1777672037 | 29.44° C | 54% | 1008.8 hPa | 0 mm | - | 268 W/m² | - |
| 1777671733 | 29.44° C | 53% | 1008.9 hPa | 0 mm | - | 195 W/m² | - |
| 1777671429 | 30° C | 51% | 1009 hPa | 0 mm | - | 190 W/m² | - |
| 1777671126 | 31.11° C | 50% | 1008.8 hPa | 0 mm | - | 275 W/m² | - |
| 1777670822 | 31.67° C | 49% | 1008.8 hPa | 0 mm | - | 363 W/m² | - |
| 1777670519 | 30.56° C | 51% | 1009 hPa | 0 mm | - | 475 W/m² | - |
| 1777670215 | 30.56° C | 51% | 1008.9 hPa | 0 mm | - | 439 W/m² | - |
| 1777669913 | 30.56° C | 51% | 1009 hPa | 0 mm | - | 309 W/m² | - |
| 1777669610 | 30.56° C | 51% | 1009.1 hPa | 0 mm | - | 350 W/m² | - |
| 1777669307 | 30.56° C | 50% | 1009.4 hPa | 0 mm | - | 285 W/m² | - |
| 1777669002 | 31.67° C | 50% | 1009.2 hPa | 0 mm | - | 441 W/m² | - |
| 1777668700 | 31.67° C | 49% | 1009.1 hPa | 0 mm | - | 472 W/m² | - |
| 1777668397 | 31.11° C | 50% | 1009.2 hPa | 0 mm | - | 644 W/m² | - |
| 1777668093 | 31.67° C | 50% | 1009 hPa | 0 mm | - | 511 W/m² | - |
| 1777667790 | 31.67° C | 50% | 1009.1 hPa | 0 mm | - | 633 W/m² | - |
* Rain latest hour (hover to see other rain measurements)
** Current wind speed in m/s (hover to see current wind gust speed)